Tracking 26442 objects as of 6-Dec-2022
HD Live streaming from Space Station
objects crossing your sky now

ORBICRAFT-ZORKIY

Track ORBICRAFT-ZORKIY now!
10-day predictions
ORBICRAFT-ZORKIY is classified as:


NORAD ID: 47960
Int'l Code: 2021-022AE
Perigee: 532.2 km
Apogee: 557.7 km
Inclination: 97.5 °
Period: 95.4 minutes
Semi major axis: 6915 km
RCS: Unknown
Launch date: March 22, 2021
Source: (TBD)
Launch site: TYURATAM MISSILE AND SPACE COMPLEX (TTMTR)

Uplink (MHz):
Downlink (MHz): 437.850/437.950/10465.000
Beacon (MHz):
Mode: 2k4/9k6 FSK DVB-S2
Call sign: RS15S
Status: Active

aabbcc
Your satellite tracking list
Your tracking list is empty




NASA's NSSDC Master Catalog

Two Line Element Set (TLE):
1 47960U 21022AE  22340.21731337  .00006092  00000-0  38280-3 0  9992
2 47960  97.5159 236.4227 0018408 279.8975 241.5506 15.09476522 93408
Source of the keplerian elements: AMSAT